• In United Kingdom
  • List of Countries
  • For 7 days
  • Water Temperature
  • Satellite Maps
  • Weather Map
  • Weather Widgets
  • user-avatar
    Login

    Hourly Weather San Miguel de Tucumán

    Today, 22 November, Wednesday

    Time Temperature Precipitation Wind Pressure Humidity
    00:00 +20°C° 0 mm 1 mps 722 mmHg 76%
    01:00 +20°C° 0 mm 1 mps 722 mmHg 75%
    02:00 +20°C° 0 mm 1 mps 721 mmHg 74%
    03:00 +20°C° 0 mm 1 mps 721 mmHg 75%
    04:00 +19°C° 0 mm 1 mps 721 mmHg 76%
    05:00 +19°C° 0 mm 1 mps 721 mmHg 77%
    06:00 +20°C° 0 mm 2 mps 721 mmHg 71%
    07:00 +21°C° 0 mm 2 mps 722 mmHg 65%
    08:00 +24°C° 0 mm 3 mps 722 mmHg 59%
    09:00 +26°C° 0 mm 3 mps 722 mmHg 53%
    10:00 +28°C° 0 mm 3 mps 721 mmHg 47%
    11:00 +30°C° 0 mm 3 mps 721 mmHg 42%
    12:00 +30°C° 0 mm 4 mps 720 mmHg 39%
    13:00 +32°C° 0 mm 4 mps 720 mmHg 37%
    14:00 +33°C° 0 mm 4 mps 719 mmHg 34%
    15:00 +33°C° 0 mm 4 mps 718 mmHg 34%
    16:00 +32°C° 0 mm 4 mps 718 mmHg 35%
    17:00 +31°C° 0 mm 3 mps 717 mmHg 35%
    18:00 +29°C° 0 mm 3 mps 717 mmHg 40%
    19:00 +27°C° 0 mm 2 mps 717 mmHg 45%
    20:00 +25°C° 0 mm 2 mps 717 mmHg 50%
    21:00 +24°C° 0 mm 2 mps 718 mmHg 51%
    22:00 +24°C° 0 mm 2 mps 718 mmHg 52%
    23:00 +23°C° 0 mm 2 mps 719 mmHg 53%

    Tomorrow, 23 November, Thursday

    Time Temperature Precipitation Wind Pressure Humidity
    00:00 +23°C° 0 mm 2 mps 718 mmHg 54%
    01:00 +23°C° 0 mm 2 mps 718 mmHg 55%
    02:00 +21°C° 0 mm 2 mps 717 mmHg 56%
    03:00 +21°C° 0 mm 2 mps 717 mmHg 55%
    04:00 +21°C° 0 mm 2 mps 717 mmHg 54%
    05:00 +21°C° 0 mm 2 mps 717 mmHg 53%
    06:00 +24°C° 0 mm 2 mps 717 mmHg 48%
    07:00 +26°C° 0 mm 2 mps 718 mmHg 44%
    08:00 +28°C° 0 mm 3 mps 718 mmHg 40%
    09:00 +30°C° 0 mm 3 mps 718 mmHg 36%
    10:00 +33°C° 0 mm 3 mps 718 mmHg 32%
    11:00 +35°C° 0 mm 3 mps 718 mmHg 29%
    12:00 +36°C° 0 mm 4 mps 717 mmHg 27%
    13:00 +37°C° 0 mm 4 mps 716 mmHg 26%
    14:00 +38°C° 0 mm 4 mps 716 mmHg 25%
    15:00 +38°C° 0 mm 4 mps 715 mmHg 26%
    16:00 +37°C° 0 mm 4 mps 714 mmHg 27%
    17:00 +37°C° 0 mm 4 mps 714 mmHg 28%
    18:00 +34°C° 0 mm 3 mps 714 mmHg 33%
    19:00 +31°C° 0 mm 3 mps 715 mmHg 39%
    20:00 +29°C° 0 mm 2 mps 715 mmHg 44%
    21:00 +28°C° 0 mm 2 mps 716 mmHg 45%
    22:00 +28°C° 0 mm 2 mps 716 mmHg 46%
    23:00 +27°C° 0 mm 2 mps 716 mmHg 47%

    Day after tomorrow, 24 November, Friday

    Time Temperature Precipitation Wind Pressure Humidity
    00:00 +27°C° 0 mm 2 mps 716 mmHg 47%
    01:00 +26°C° 0 mm 2 mps 715 mmHg 47%
    02:00 +26°C° 0 mm 2 mps 715 mmHg 47%
    03:00 +25°C° 0 mm 2 mps 715 mmHg 47%
    04:00 +25°C° 0 mm 2 mps 715 mmHg 47%
    05:00 +24°C° 0 mm 2 mps 715 mmHg 47%
    06:00 +26°C° 0 mm 2 mps 715 mmHg 44%
    07:00 +28°C° 0 mm 2 mps 716 mmHg 41%
    08:00 +30°C° 0 mm 3 mps 716 mmHg 38%
    09:00 +33°C° 0 mm 3 mps 716 mmHg 34%
    10:00 +35°C° 0 mm 3 mps 716 mmHg 31%
    11:00 +37°C° 0 mm 3 mps 716 mmHg 28%
    12:00 +38°C° 0 mm 3 mps 715 mmHg 27%
    13:00 +39°C° 0 mm 3 mps 714 mmHg 26%
    14:00 +41°C° 0 mm 4 mps 713 mmHg 25%
    15:00 +40°C° 0 mm 3 mps 713 mmHg 26%
    16:00 +40°C° 0 mm 3 mps 712 mmHg 27%
    17:00 +39°C° 0 mm 3 mps 712 mmHg 27%
    18:00 +37°C° 0.1 mm 2 mps 713 mmHg 34%
    19:00 +34°C° 0.1 mm 2 mps 713 mmHg 40%
    20:00 +31°C° 0.1 mm 2 mps 714 mmHg 47%
    21:00 +29°C° 1.1 mm 2 mps 715 mmHg 55%
    22:00 +27°C° 1.1 mm 3 mps 716 mmHg 64%
    23:00 +25°C° 1.1 mm 4 mps 717 mmHg 72%

    25 November, Saturday

    Time Temperature Precipitation Wind Pressure Humidity
    00:00 +24°C° 0.1 mm 3 mps 717 mmHg 74%
    01:00 +22°C° 0.1 mm 3 mps 718 mmHg 75%
    02:00 +21°C° 0.1 mm 3 mps 718 mmHg 77%
    03:00 +21°C° 0 mm 3 mps 718 mmHg 79%
    04:00 +20°C° 0 mm 3 mps 718 mmHg 80%
    05:00 +20°C° 0 mm 2 mps 719 mmHg 81%
    06:00 +21°C° 0 mm 2 mps 719 mmHg 77%
    07:00 +23°C° 0 mm 2 mps 720 mmHg 72%
    08:00 +24°C° 0 mm 2 mps 721 mmHg 67%
    09:00 +27°C° 0 mm 3 mps 721 mmHg 60%
    10:00 +29°C° 0 mm 3 mps 721 mmHg 52%
    11:00 +31°C° 0 mm 3 mps 721 mmHg 44%
    12:00 +33°C° 0 mm 3 mps 720 mmHg 42%
    13:00 +34°C° 0 mm 3 mps 719 mmHg 39%
    14:00 +35°C° 0 mm 3 mps 719 mmHg 36%
    15:00 +34°C° 0 mm 3 mps 718 mmHg 37%
    16:00 +34°C° 0 mm 2 mps 718 mmHg 37%
    17:00 +34°C° 0 mm 2 mps 718 mmHg 38%
    18:00 +31°C° 0 mm 2 mps 718 mmHg 43%
    19:00 +28°C° 0 mm 1 mps 718 mmHg 49%
    20:00 +26°C° 0 mm 1 mps 719 mmHg 55%
    21:00 +26°C° 0 mm 1 mps 719 mmHg 56%
    22:00 +26°C° 0 mm 1 mps 719 mmHg 57%
    23:00 +25°C° 0 mm 1 mps 720 mmHg 58%

    26 November, Sunday

    Time Temperature Precipitation Wind Pressure Humidity
    00:00 +25°C° 0 mm 1 mps 719 mmHg 59%
    01:00 +24°C° 0 mm 1 mps 718 mmHg 60%
    02:00 +24°C° 0 mm 1 mps 718 mmHg 61%
    03:00 +24°C° 0 mm 1 mps 718 mmHg 62%
    04:00 +23°C° 0 mm 1 mps 717 mmHg 63%
    05:00 +23°C° 0 mm 1 mps 717 mmHg 63%
    06:00 +25°C° 0 mm 1 mps 718 mmHg 59%
    07:00 +27°C° 0 mm 1 mps 718 mmHg 54%
    08:00 +29°C° 0 mm 2 mps 719 mmHg 49%
    09:00 +31°C° 0 mm 2 mps 718 mmHg 46%
    10:00 +33°C° 0 mm 3 mps 718 mmHg 42%
    11:00 +35°C° 0 mm 3 mps 717 mmHg 38%
    12:00 +36°C° 0 mm 4 mps 716 mmHg 36%
    13:00 +36°C° 0 mm 4 mps 715 mmHg 34%
    14:00 +37°C° 0 mm 4 mps 714 mmHg 33%
    15:00 +37°C° 0 mm 4 mps 713 mmHg 33%
    16:00 +36°C° 0 mm 4 mps 713 mmHg 34%
    17:00 +36°C° 0 mm 3 mps 712 mmHg 34%
    18:00 +34°C° 0 mm 3 mps 713 mmHg 39%
    19:00 +31°C° 0 mm 2 mps 713 mmHg 44%
    20:00 +28°C° 0 mm 2 mps 714 mmHg 48%
    21:00 +28°C° 0.1 mm 2 mps 714 mmHg 51%
    22:00 +27°C° 0.1 mm 2 mps 714 mmHg 53%
    23:00 +27°C° 0.1 mm 2 mps 714 mmHg 55%

    27 November, Monday

    Time Temperature Precipitation Wind Pressure Humidity
    00:00 +26°C° 0.1 mm 2 mps 714 mmHg 56%
    01:00 +26°C° 0.1 mm 2 mps 713 mmHg 57%
    02:00 +25°C° 0.1 mm 2 mps 713 mmHg 58%
    03:00 +25°C° 0 mm 2 mps 713 mmHg 59%
    04:00 +25°C° 0 mm 1 mps 713 mmHg 60%
    05:00 +24°C° 0 mm 1 mps 714 mmHg 61%
    06:00 +26°C° 0 mm 1 mps 714 mmHg 55%
    07:00 +28°C° 0 mm 1 mps 715 mmHg 50%
    08:00 +30°C° 0 mm 1 mps 716 mmHg 45%
    09:00 +32°C° 0 mm 2 mps 716 mmHg 42%
    10:00 +35°C° 0 mm 2 mps 716 mmHg 38%
    11:00 +37°C° 0 mm 2 mps 716 mmHg 35%
    12:00 +37°C° 0.1 mm 2 mps 716 mmHg 36%
    13:00 +37°C° 0.1 mm 2 mps 716 mmHg 36%
    14:00 +37°C° 0.1 mm 2 mps 715 mmHg 37%
    15:00 +36°C° 0.8 mm 2 mps 715 mmHg 42%
    16:00 +35°C° 0.8 mm 2 mps 715 mmHg 47%
    17:00 +32°C° 0.8 mm 1 mps 715 mmHg 52%
    18:00 +30°C° 5.2 mm 2 mps 716 mmHg 63%
    19:00 +28°C° 5.2 mm 3 mps 717 mmHg 73%
    20:00 +26°C° 5.2 mm 3 mps 718 mmHg 83%
    21:00 +25°C° 4.8 mm 3 mps 719 mmHg 86%
    22:00 +24°C° 4.8 mm 3 mps 720 mmHg 90%
    23:00 +22°C° 4.8 mm 3 mps 721 mmHg 93%
    Show more